[[{"header":{"parameterUnit":"m.s-1","parameterCategory":2,"la1":30.2991,"la2":30.254,"lo1":-89.0895,"lo2":-89.0444,"dy":0.0017,"dx":0.0017,"nx":28,"ny":28,"refTime":"2023-08-20T21:00:00:Z","depth":"0","parameterNumber":2,"parameterNumberName":"U-component_of_CURRENTS"},"data":[0,0,0,0,0,0,0,0,0,0,0,0,0,0,0,0,0,0,0,0,0,0,0,0,0,0,0,0,0,0,0,0,0,0,0,0,0,0,0,0,0,0,0,0,0,0,0,0,0,0,0,0,0,0,0,0,0,0,-0.2506,-0.2504,0,-0.2358,-0.2356,-0.2354,-0.2338,-0.234,-0.2342,-0.2344,-0.2196,-0.219,-0.2185,0,0,0,0,0,0,0,0,0,0,0,0,0,-0.2559,-0.2559,-0.2506,-0.2504,-0.2503,-0.2358,-0.2356,-0.2353,-0.2337,-0.234,-0.2342,-0.2345,-0.2198,-0.2191,-0.2184,0,0,0,0,0,0,0,0,0,0,0,0,0,-0.2481,-0.2559,-0.2506,-0.2482,-0.2479,-0.2359,-0.2355,-0.2352,-0.2337,-0.234,-0.2343,-0.2346,-0.22,-0.2192,-0.2183,-0.2067,0,0,-0.2156,-0.2152,0,0,0,0,0,0,0,0,-0.2485,-0.2478,-0.2487,-0.2484,-0.248,-0.2375,-0.232,-0.2259,-0.2336,-0.2385,-0.2344,-0.2347,-0.2257,-0.2244,-0.2201,-0.206,-0.2054,-0.2155,-0.215,-0.2146,-0.2144,0,0,0,0,0,0,0,-0.2491,-0.2483,-0.2441,-0.2486,-0.2481,-0.2406,-0.2399,-0.2307,-0.2301,-0.2381,-0.2381,-0.2373,-0.2255,-0.2209,-0.2197,-0.2052,-0.2156,-0.2148,-0.2143,-0.2139,-0.1892,-0.1891,0,0,0,0,0,0,-0.2529,-0.2489,-0.2446,-0.2437,-0.2497,-0.2404,-0.2396,-0.24,-0.2302,-0.2291,-0.237,-0.2373,-0.2223,-0.2208,-0.2192,-0.2098,-0.2146,-0.2138,-0.2133,-0.1893,-0.1892,-0.189,0,0,0,0,0,0,-0.2531,-0.2527,-0.2452,-0.2464,-0.245,-0.2402,-0.2405,-0.2396,-0.2377,-0.2295,-0.2284,-0.2366,-0.2225,-0.2205,-0.2134,-0.2091,-0.2134,-0.2126,-0.1895,-0.1893,-0.1891,-0.1879,0,0,0,0,0,0,-0.2533,-0.2529,-0.2543,-0.2467,-0.2451,-0.2412,-0.2402,-0.2391,-0.2369,-0.2371,-0.2286,-0.2274,-0.2226,-0.2147,-0.2125,-0.208,-0.2119,-0.1897,-0.1894,-0.1892,-0.1881,-0.1877,-0.1873,0,0,0,0,0,-0.2536,-0.2554,-0.2545,-0.2539,-0.2474,-0.2413,-0.2397,-0.2367,-0.2367,-0.236,-0.2301,-0.2279,-0.2117,-0.2138,-0.2113,-0.2064,-0.1898,-0.1895,-0.1892,-0.1883,-0.1878,-0.1873,0,0,0,0,0,0,-0.2581,-0.2551,-0.2541,-0.2549,-0.2499,-0.2414,-0.2406,-0.2373,-0.2314,-0.2323,-0.2249,-0.2231,-0.2157,-0.2113,-0.2139,-0.199,-0.2006,-0.1998,-0.2008,-0.2003,-0.1999,-0.2003,-0.2112,0,0,0,0,0,-0.2597,-0.2609,-0.2552,-0.2557,-0.2541,-0.247,-0.2442,-0.2417,-0.2356,-0.2335,-0.2266,-0.2194,-0.2113,-0.2068,-0.2,-0.1901,-0.1866,-0.1859,-0.1855,-0.1852,-0.184,-0.1748,-0.1735,-0.1881,-0.1881,-0.1881,0,0,-0.2609,-0.26,-0.2602,-0.2568,-0.2527,-0.2474,-0.2462,-0.243,-0.2371,-0.2322,-0.2233,-0.218,-0.2089,-0.1994,-0.1955,-0.1955,-0.1797,-0.1848,-0.1846,-0.1835,-0.1744,-0.1729,-0.1717,-0.1879,-0.1879,-0.1879,0,0,-0.2625,-0.2638,-0.2639,-0.2601,-0.2558,-0.2502,-0.2501,-0.2418,-0.2381,-0.2288,-0.2238,-0.2165,-0.2038,-0.1956,-0.1898,-0.1827,-0.1789,-0.1813,-0.1773,-0.1685,-0.1672,-0.166,-0.1619,-0.1604,-0.1798,-0.1798,-0.1798,0,-0.2636,-0.2626,-0.2625,-0.26,-0.2554,-0.2517,-0.2464,-0.2408,-0.2307,-0.2252,-0.2275,-0.2069,-0.2011,-0.1857,-0.1842,-0.1813,-0.1779,-0.1798,-0.1679,-0.1667,-0.1654,-0.1615,-0.1598,-0.1797,-0.1797,-0.1797,-0.1797,0,-0.2637,-0.2613,-0.2611,-0.2561,-0.2518,-0.2474,-0.2397,-0.2346,-0.2298,-0.2224,-0.21,-0.2014,-0.1893,-0.1861,-0.1824,-0.1693,-0.1704,-0.1696,-0.1693,-0.1639,-0.1601,-0.1584,-0.1796,-0.1796,-0.1796,-0.1797,0,0,-0.2662,-0.2616,-0.2609,-0.2561,-0.2487,-0.2442,-0.2357,-0.2243,-0.2179,-0.2094,-0.1986,-0.1852,-0.1825,-0.176,-0.1702,-0.1621,-0.1522,-0.1624,-0.162,-0.1588,-0.1355,-0.1365,-0.1347,-0.1492,-0.1489,-0.1486,-0.1372,0,-0.2638,-0.2593,-0.2562,-0.2466,-0.2414,-0.2347,-0.2262,-0.2168,-0.2096,-0.1995,-0.1897,-0.1794,-0.1778,-0.173,-0.164,-0.1554,-0.1472,-0.1556,-0.1409,-0.1405,-0.1421,-0.1325,-0.1262,-0.1154,-0.1355,-0.1352,-0.135,0,-0.2616,-0.2586,-0.2514,-0.2394,-0.2367,-0.2308,-0.2173,-0.2092,-0.1962,-0.1909,-0.1801,-0.1744,-0.1602,-0.1622,-0.1425,-0.1482,-0.1413,-0.1357,-0.1351,-0.1347,-0.1379,-0.1234,-0.1114,-0.1109,-0.1323,-0.1325,-0.1327,0,-0.2616,-0.2525,-0.2469,-0.2433,-0.2317,-0.2261,-0.219,-0.2069,-0.1993,-0.1867,-0.1817,-0.1657,-0.1586,-0.1462,-0.1365,-0.1383,-0.1181,-0.1188,-0.1127,-0.1129,-0.1038,-0.1038,-0.0892,-0.1039,-0.1039,-0.1039,-0.1039,0,-0.258,-0.2522,-0.2474,-0.2439,-0.2346,-0.2271,-0.2164,-0.2081,-0.1971,-0.187,-0.1784,-0.1688,-0.1543,-0.1424,-0.1335,-0.1181,-0.1148,-0.1093,-0.1076,-0.1037,-0.1039,-0.1003,-0.1028,-0.1035,-0.1036,-0.1037,-0.1037,0,-0.2575,-0.2544,-0.2465,-0.2376,-0.2344,-0.2286,-0.2164,-0.2082,-0.2002,-0.1877,-0.184,-0.1692,-0.1531,-0.1403,-0.121,-0.1145,-0.0976,-0.0963,-0.0958,-0.0942,-0.0887,-0.0915,-0.0748,-0.0733,-0.0854,-0.0853,-0.0852,0,-0.2563,-0.2535,-0.2456,-0.2413,-0.2373,-0.2288,-0.2208,-0.2101,-0.202,-0.1868,-0.1798,-0.1645,-0.1513,-0.1267,-0.1093,-0.0919,-0.0921,-0.0798,-0.0804,-0.0846,-0.0863,-0.0888,-0.0891,-0.0687,-0.0685,-0.0683,-0.0682,0,-0.2519,-0.2512,-0.2464,-0.2398,-0.2321,-0.2229,-0.2127,-0.208,-0.1943,-0.187,-0.1739,-0.1644,-0.1389,-0.1172,-0.0973,-0.0852,-0.0787,-0.0762,-0.0761,-0.0674,-0.0727,-0.0719,-0.0854,-0.0667,-0.0669,-0.067,-0.0671,-0.0671,-0.2476,-0.2454,-0.24,-0.2317,-0.2248,-0.2148,-0.2077,-0.1986,-0.1879,-0.1743,-0.1693,-0.1535,-0.1255,-0.0943,-0.0833,-0.0605,-0.0665,-0.0567,-0.0585,-0.0599,-0.0605,-0.0746,-0.0579,-0.0579,-0.058,-0.0581,-0.0582,0,-0.2335,-0.2331,-0.2298,-0.2179,-0.2077,-0.2075,-0.1978,-0.189,-0.1773,-0.1675,-0.1578,-0.1295,-0.1048,-0.08,-0.0496,-0.0446,-0.0411,-0.0437,-0.043,-0.0433,-0.0489,-0.0505,-0.0366,-0.0366,-0.0366,-0.0366,-0.0366,-0.0366,-0.2248,-0.2173,-0.2167,-0.1986,-0.1941,-0.1801,-0.1755,-0.1709,-0.1623,-0.1415,-0.1274,-0.1171,-0.0884,-0.0595,-0.0389,-0.034,-0.0344,-0.0333,-0.0382,-0.0415,-0.0428,-0.0441,-0.0459,-0.0313,-0.0313,-0.0287,-0.0287,-0.0287]},{"header":{"parameterUnit":"m.s-1","parameterCategory":2,"la1":30.2991,"la2":30.254,"lo1":-89.0895,"lo2":-89.0444,"dy":0.0017,"dx":0.0017,"nx":28,"ny":28,"refTime":"2023-08-20T21:00:00:Z","depth":"0","parameterNumber":3,"parameterNumberName":"V-component_of_CURRENTS"},"data":[0,0,0,0,0,0,0,0,0,0,0,0,0,0,0,0,0,0,0,0,0,0,0,0,0,0,0,0,0,0,0,0,0,0,0,0,0,0,0,0,0,0,0,0,0,0,0,0,0,0,0,0,0,0,0,0,0,0,-0.0138,-0.0137,0,-0.008,-0.0079,-0.0079,-0.0082,-0.0083,-0.0084,-0.0085,-0.0022,-0.0019,-0.0016,0,0,0,0,0,0,0,0,0,0,0,0,0,-0.0192,-0.0191,-0.0138,-0.0137,-0.0137,-0.0081,-0.0079,-0.0078,-0.0082,-0.0083,-0.0084,-0.0086,-0.0023,-0.0019,-0.0016,0,0,0,0,0,0,0,0,0,0,0,0,0,-0.0152,-0.019,-0.0138,-0.0134,-0.0133,-0.0081,-0.0079,-0.0078,-0.0081,-0.0083,-0.0085,-0.0086,-0.0024,-0.002,-0.0016,0.0042,0,0,-0.0003,-0.0002,0,0,0,0,0,0,0,0,-0.0154,-0.015,-0.0135,-0.0134,-0.0133,-0.0093,-0.0075,-0.0039,-0.0081,-0.0098,-0.0085,-0.0087,-0.0045,-0.004,-0.0021,0.0045,0.0048,-0.0003,-0.0001,0.0001,0.0002,0,0,0,0,0,0,0,-0.0157,-0.0152,-0.0112,-0.0134,-0.0133,-0.0115,-0.0111,-0.0068,-0.0061,-0.0097,-0.0097,-0.0095,-0.0045,-0.0025,-0.002,0.0049,-0.0003,0.0001,0.0003,0.0005,0.0183,0.0185,0,0,0,0,0,0,-0.0171,-0.0155,-0.0114,-0.0111,-0.0151,-0.0113,-0.0109,-0.0102,-0.0061,-0.0058,-0.0094,-0.0096,-0.0031,-0.0025,-0.0018,0.0071,0.0001,0.0005,0.0007,0.018,0.0183,0.0186,0,0,0,0,0,0,-0.0172,-0.0168,-0.0116,-0.0134,-0.0127,-0.0111,-0.0102,-0.01,-0.0081,-0.006,-0.0056,-0.0079,-0.0032,-0.0023,0.0023,0.0073,0.0007,0.0011,0.0178,0.0181,0.0184,0.0238,0,0,0,0,0,0,-0.0174,-0.0168,-0.016,-0.0135,-0.0126,-0.0076,-0.0101,-0.0097,-0.0079,-0.008,-0.0046,-0.0042,-0.0033,0.0017,0.0027,0.0077,0.0014,0.0175,0.0179,0.0183,0.0233,0.0243,0.0251,0,0,0,0,0,-0.0176,-0.0159,-0.016,-0.0155,-0.0118,-0.0075,-0.0067,-0.0061,-0.0077,-0.0053,-0.0039,-0.0043,0.0052,0.0022,0.0033,0.0086,0.0173,0.0178,0.0183,0.0229,0.0241,0.0251,0,0,0,0,0,0,-0.0181,-0.0157,-0.0158,-0.0136,-0.0106,-0.0077,-0.0053,-0.0054,-0.0022,-0.0027,-0.0016,-0.0009,0.0051,0.0064,0.0031,0.0151,0.0114,0.0122,0.0146,0.0157,0.0165,0.0156,0.0017,0,0,0,0,0,-0.0178,-0.0156,-0.0132,-0.0111,-0.0093,-0.0072,-0.0053,-0.0049,-0.0023,-0.0012,0.001,0.0041,0.0086,0.0113,0.0148,0.0217,0.0222,0.026,0.0269,0.0276,0.0278,0.033,0.0343,0.0203,0.0203,0.0202,0,0,-0.018,-0.0159,-0.0151,-0.011,-0.0084,-0.0037,-0.0063,-0.0029,0.0007,-0.0007,0.0052,0.007,0.0109,0.0179,0.0209,0.0194,0.032,0.0283,0.0289,0.0286,0.0336,0.035,0.0362,0.0206,0.0205,0.0205,0,0,-0.0148,-0.0144,-0.0105,-0.007,-0.0028,-0.0012,-0.0002,0.0033,0.0047,0.01,0.0102,0.0147,0.0211,0.0253,0.0282,0.0366,0.0359,0.0382,0.0428,0.0479,0.049,0.0501,0.0523,0.0534,0.0393,0.0393,0.0393,0,-0.0153,-0.0097,-0.0086,-0.0026,0.0003,0.0002,0.0055,0.0082,0.0124,0.0144,0.0123,0.0223,0.0252,0.0346,0.0372,0.0388,0.0398,0.0381,0.0489,0.0499,0.0509,0.0529,0.0541,0.0396,0.0396,0.0396,0.0395,0,-0.0073,-0.0034,-0.0003,0.0067,0.0102,0.0145,0.0177,0.0208,0.021,0.023,0.0299,0.0333,0.0387,0.0417,0.042,0.0516,0.0494,0.0486,0.0456,0.0526,0.0543,0.0554,0.0401,0.04,0.0399,0.0398,0,0,-0.007,0.0028,0.0042,0.0075,0.015,0.0177,0.0247,0.0302,0.0332,0.0369,0.0419,0.0499,0.049,0.0522,0.0539,0.0588,0.0664,0.0565,0.0567,0.0576,0.0756,0.0729,0.0739,0.067,0.0673,0.0675,0.074,0,-0.0011,0.0091,0.0135,0.0216,0.0263,0.029,0.0349,0.0392,0.0419,0.0465,0.0501,0.055,0.054,0.056,0.0613,0.0643,0.0698,0.0646,0.0697,0.0698,0.0657,0.0753,0.0724,0.0778,0.0751,0.0753,0.0754,0,0.0068,0.0117,0.0205,0.027,0.0294,0.0337,0.0402,0.0452,0.052,0.054,0.0592,0.0607,0.0684,0.0656,0.0753,0.0715,0.0746,0.0767,0.077,0.0733,0.0694,0.0707,0.08,0.0713,0.0772,0.077,0.0769,0,0.0061,0.0166,0.0222,0.0253,0.0333,0.0363,0.0397,0.0468,0.0507,0.0578,0.0607,0.0684,0.0716,0.077,0.0802,0.0786,0.0889,0.0875,0.0885,0.0882,0.0861,0.0852,0.0867,0.0963,0.0963,0.0963,0.0963,0,0.0108,0.0153,0.0213,0.0239,0.0285,0.0346,0.0398,0.0444,0.0519,0.0574,0.0628,0.0684,0.0747,0.0804,0.083,0.0886,0.0917,0.0912,0.0913,0.0879,0.0871,0.0795,0.0775,0.0965,0.0965,0.0964,0.0964,0,0.0103,0.0154,0.02,0.0263,0.0281,0.0303,0.0377,0.0417,0.049,0.0565,0.0588,0.0694,0.0772,0.0821,0.0911,0.0922,0.0955,0.0988,0.0926,0.0919,0.084,0.0826,0.0904,0.0913,0.1022,0.1022,0.1022,0,0.0126,0.0146,0.0185,0.0201,0.0226,0.0269,0.0304,0.0383,0.0433,0.0573,0.0608,0.0713,0.0796,0.0899,0.0929,0.098,0.0966,0.0987,0.0967,0.0851,0.0836,0.084,0.0842,0.096,0.096,0.0959,0.0959,0,0.0141,0.0135,0.0155,0.0175,0.02,0.0238,0.0294,0.0327,0.0437,0.0525,0.0653,0.0736,0.0838,0.0895,0.0946,0.0969,0.094,0.098,0.0895,0.0828,0.0803,0.0803,0.0874,0.0955,0.0956,0.0956,0.0956,0.0956,0.014,0.0141,0.0152,0.0164,0.0183,0.0213,0.0252,0.0312,0.0401,0.0523,0.0637,0.0727,0.0798,0.0872,0.0889,0.0838,0.0921,0.0843,0.0847,0.0869,0.0849,0.0895,0.0949,0.095,0.095,0.095,0.0951,0,0.017,0.0157,0.0157,0.0171,0.0174,0.0199,0.0261,0.03,0.0388,0.0463,0.0585,0.0629,0.0682,0.0693,0.0688,0.0688,0.0707,0.0692,0.0677,0.0699,0.0759,0.0721,0.0685,0.0685,0.0685,0.0685,0.0685,0.0685,0.0192,0.0188,0.0171,0.0169,0.0178,0.0221,0.026,0.0297,0.0343,0.0395,0.0414,0.0448,0.0442,0.0508,0.0475,0.0489,0.0489,0.054,0.0555,0.0538,0.055,0.0563,0.0519,0.0441,0.0441,0.0484,0.0484,0.0484]}],[{"header":{"parameterUnit":"m.s-1","parameterCategory":2,"la1":30.2991,"la2":30.254,"lo1":-89.0895,"lo2":-89.0444,"dy":0.0017,"dx":0.0017,"nx":28,"ny":28,"refTime":"2023-08-20T21:00:00:Z","depth":"2","parameterNumber":2,"parameterNumberName":"U-component_of_CURRENTS"},"data":[0,0,0,0,0,0,0,0,0,0,0,0,0,0,0,0,0,0,0,0,0,0,0,0,0,0,0,0,0,0,0,0,0,0,0,0,0,0,0,0,0,0,0,0,0,0,0,0,0,0,0,0,0,0,0,0,0,0,-0.217,-0.2169,0,-0.2072,-0.2071,-0.207,-0.2076,-0.2078,-0.208,-0.2081,-0.1963,-0.1958,-0.1954,0,0,0,0,0,0,0,0,0,0,0,0,0,-0.2188,-0.2188,-0.217,-0.2169,-0.2168,-0.2073,-0.2071,-0.2069,-0.2076,-0.2078,-0.208,-0.2082,-0.1965,-0.1959,-0.1953,0,0,0,0,0,0,0,0,0,0,0,0,0,-0.214,-0.2188,-0.217,-0.2163,-0.2162,-0.2073,-0.2071,-0.2069,-0.2075,-0.2078,-0.2081,-0.2083,-0.1967,-0.1959,-0.1952,-0.1853,0,0,-0.193,-0.1927,0,0,0,0,0,0,0,0,-0.2143,-0.2139,-0.2165,-0.2163,-0.2162,-0.2093,-0.2034,-0.1997,-0.2074,-0.2103,-0.2081,-0.2084,-0.2005,-0.1995,-0.1965,-0.1847,-0.1842,-0.1929,-0.1925,-0.1922,-0.192,0,0,0,0,0,0,0,-0.2147,-0.2143,-0.2127,-0.2164,-0.2162,-0.2105,-0.2103,-0.2026,-0.2036,-0.2101,-0.2102,-0.2097,-0.2004,-0.1972,-0.1962,-0.1841,-0.193,-0.1923,-0.1919,-0.1916,-0.1696,-0.1695,0,0,0,0,0,0,-0.2173,-0.2146,-0.213,-0.2124,-0.2164,-0.2104,-0.2101,-0.2109,-0.2038,-0.2031,-0.2095,-0.2098,-0.1983,-0.1971,-0.1958,-0.1877,-0.1922,-0.1915,-0.1911,-0.1698,-0.1696,-0.1694,0,0,0,0,0,0,-0.2174,-0.2173,-0.2134,-0.2136,-0.2128,-0.2103,-0.211,-0.2105,-0.2097,-0.2034,-0.2027,-0.2095,-0.1985,-0.1968,-0.1907,-0.1872,-0.1912,-0.1905,-0.1699,-0.1697,-0.1695,-0.1689,0,0,0,0,0,0,-0.2175,-0.2174,-0.2184,-0.2138,-0.2129,-0.2107,-0.2108,-0.2102,-0.209,-0.2093,-0.203,-0.2022,-0.1985,-0.1918,-0.19,-0.1862,-0.19,-0.1701,-0.1698,-0.1696,-0.1691,-0.1687,-0.1683,0,0,0,0,0,-0.2176,-0.2191,-0.2186,-0.2183,-0.2146,-0.2107,-0.2096,-0.2083,-0.2088,-0.2084,-0.2039,-0.2025,-0.1888,-0.1911,-0.189,-0.1849,-0.1703,-0.1699,-0.1696,-0.1693,-0.1688,-0.1683,0,0,0,0,0,0,-0.218,-0.2192,-0.2185,-0.2196,-0.2163,-0.2111,-0.2108,-0.2087,-0.2044,-0.2057,-0.1997,-0.1983,-0.1917,-0.1882,-0.1908,-0.1779,-0.1795,-0.1787,-0.1799,-0.1794,-0.179,-0.1745,-0.1894,0,0,0,0,0,-0.2189,-0.2221,-0.2191,-0.2194,-0.219,-0.2145,-0.2127,-0.2119,-0.2076,-0.2063,-0.2012,-0.1953,-0.1877,-0.1842,-0.1782,-0.17,-0.1675,-0.1663,-0.1659,-0.1656,-0.1606,-0.1564,-0.1551,-0.1683,-0.1683,-0.1683,0,0,-0.216,-0.2197,-0.2191,-0.2199,-0.2177,-0.2126,-0.2142,-0.2132,-0.2069,-0.2051,-0.1968,-0.194,-0.1855,-0.1774,-0.174,-0.1745,-0.1612,-0.1652,-0.165,-0.1599,-0.1559,-0.1546,-0.1534,-0.1681,-0.1681,-0.1682,0,0,-0.2128,-0.2183,-0.2179,-0.2163,-0.2164,-0.2143,-0.2144,-0.2102,-0.2078,-0.1992,-0.1966,-0.1913,-0.1799,-0.1732,-0.1677,-0.1606,-0.1599,-0.1608,-0.1537,-0.1499,-0.1487,-0.1477,-0.1463,-0.1451,-0.16,-0.16,-0.16,0,-0.2081,-0.2101,-0.216,-0.2143,-0.2127,-0.2147,-0.2095,-0.2049,-0.1985,-0.1959,-0.1973,-0.1813,-0.1757,-0.1629,-0.1597,-0.1592,-0.1587,-0.1567,-0.1494,-0.1483,-0.1472,-0.146,-0.1447,-0.1599,-0.1599,-0.1599,-0.1599,0,-0.2044,-0.2031,-0.2035,-0.2029,-0.2019,-0.2,-0.1961,-0.1944,-0.1932,-0.1881,-0.1797,-0.1724,-0.1639,-0.161,-0.1557,-0.1452,-0.1482,-0.1505,-0.151,-0.1458,-0.145,-0.1437,-0.1598,-0.1598,-0.1598,-0.1599,0,0,-0.1974,-0.1996,-0.1998,-0.1965,-0.1974,-0.1955,-0.1893,-0.1841,-0.1816,-0.1742,-0.1683,-0.1526,-0.1544,-0.1478,-0.1448,-0.1375,-0.1299,-0.1393,-0.1392,-0.1385,-0.1237,-0.1186,-0.1167,-0.1329,-0.1326,-0.1324,-0.1275,0,-0.1905,-0.1866,-0.1919,-0.1831,-0.1773,-0.1816,-0.1765,-0.1732,-0.1718,-0.1676,-0.1596,-0.153,-0.1478,-0.1467,-0.1379,-0.1335,-0.1257,-0.131,-0.1279,-0.1277,-0.1242,-0.1145,-0.1015,-0.0952,-0.1262,-0.126,-0.1258,0,-0.1816,-0.1825,-0.1745,-0.1734,-0.173,-0.1706,-0.1714,-0.1671,-0.1633,-0.1626,-0.1564,-0.1536,-0.1406,-0.1396,-0.124,-0.1291,-0.1229,-0.1184,-0.1183,-0.1109,-0.1197,-0.1044,-0.0916,-0.1236,-0.1238,-0.1239,-0.1241,0,-0.1699,-0.1683,-0.1642,-0.1625,-0.1622,-0.1632,-0.1663,-0.1655,-0.165,-0.161,-0.1617,-0.1499,-0.1459,-0.1346,-0.1234,-0.1249,-0.109,-0.1129,-0.1013,-0.1014,-0.0871,-0.0862,-0.0982,-0.0983,-0.0983,-0.0983,-0.0983,0,-0.1566,-0.1519,-0.1597,-0.155,-0.1545,-0.1585,-0.1604,-0.1604,-0.1644,-0.1609,-0.1598,-0.1532,-0.1439,-0.135,-0.1242,-0.1079,-0.1106,-0.0946,-0.0966,-0.087,-0.0862,-0.1079,-0.1091,-0.0981,-0.0981,-0.0982,-0.0982,0,-0.1357,-0.1412,-0.1339,-0.1407,-0.1451,-0.1438,-0.1581,-0.1584,-0.1651,-0.1612,-0.1598,-0.1557,-0.1422,-0.1338,-0.1176,-0.1095,-0.0955,-0.089,-0.0792,-0.0797,-0.0907,-0.092,-0.0752,-0.0749,-0.0747,-0.0745,-0.0743,0,-0.124,-0.1176,-0.1229,-0.1233,-0.1269,-0.1334,-0.1381,-0.1524,-0.1538,-0.1574,-0.1514,-0.145,-0.1271,-0.1088,-0.0919,-0.0744,-0.0856,-0.0618,-0.0575,-0.083,-0.0869,-0.0885,-0.09,-0.0413,-0.0408,-0.0405,-0.0402,0,-0.101,-0.1034,-0.1007,-0.1025,-0.1077,-0.1134,-0.1227,-0.1246,-0.1368,-0.1333,-0.122,-0.1102,-0.0949,-0.0673,-0.0559,-0.0473,-0.064,-0.054,-0.0804,-0.0495,-0.0506,-0.0547,-0.0573,-0.0371,-0.0374,-0.0376,-0.0378,-0.0379,-0.0864,-0.0796,-0.0801,-0.0802,-0.0858,-0.0883,-0.0867,-0.0926,-0.0893,-0.0757,-0.081,-0.0563,-0.0556,-0.0182,-0.018,-0.0258,-0.0292,-0.0317,-0.0329,-0.0345,-0.0317,-0.0323,-0.015,-0.0151,-0.0153,-0.0154,-0.0156,0,-0.069,-0.0655,-0.061,-0.061,-0.0591,-0.0714,-0.0721,-0.0641,-0.048,-0.0363,-0.0181,-0.0006,0.0197,0.0093,0.0124,0.009,0.0049,-0.0028,-0.0047,-0.0074,-0.0099,-0.0063,0.0173,0.0173,0.0173,0.0173,0,0,-0.0607,-0.0499,-0.0465,-0.0374,-0.0391,-0.033,-0.0286,-0.013,-0.0015,0.0228,0.0369,0.0559,0.0364,0.0447,0.0337,0.0271,0.0094,0.0233,-0.0006,-0.0035,-0.0059,-0.0223,-0.0191,0,0,0,0,0]},{"header":{"parameterUnit":"m.s-1","parameterCategory":2,"la1":30.2991,"la2":30.254,"lo1":-89.0895,"lo2":-89.0444,"dy":0.0017,"dx":0.0017,"nx":28,"ny":28,"refTime":"2023-08-20T21:00:00:Z","depth":"2","parameterNumber":3,"parameterNumberName":"V-component_of_CURRENTS"},"data":[0,0,0,0,0,0,0,0,0,0,0,0,0,0,0,0,0,0,0,0,0,0,0,0,0,0,0,0,0,0,0,0,0,0,0,0,0,0,0,0,0,0,0,0,0,0,0,0,0,0,0,0,0,0,0,0,0,0,-0.0269,-0.0269,0,-0.0208,-0.0207,-0.0206,-0.0172,-0.0173,-0.0173,-0.0173,-0.0061,-0.0058,-0.0055,0,0,0,0,0,0,0,0,0,0,0,0,0,-0.0294,-0.0294,-0.0269,-0.0269,-0.0268,-0.0208,-0.0207,-0.0206,-0.0172,-0.0173,-0.0173,-0.0173,-0.0062,-0.0058,-0.0055,0,0,0,0,0,0,0,0,0,0,0,0,0,-0.026,-0.0294,-0.0269,-0.0247,-0.0245,-0.0208,-0.0207,-0.0205,-0.0172,-0.0173,-0.0173,-0.0173,-0.0064,-0.0059,-0.0054,-0.0017,0,0,-0.0039,-0.0037,0,0,0,0,0,0,0,0,-0.0262,-0.0258,-0.0251,-0.0249,-0.0246,-0.0202,-0.0175,-0.0141,-0.0172,-0.0196,-0.0173,-0.0174,-0.0106,-0.0097,-0.008,-0.0012,-0.0007,-0.0039,-0.0036,-0.0034,-0.0033,0,0,0,0,0,0,0,-0.0264,-0.026,-0.0241,-0.0251,-0.0248,-0.0219,-0.0215,-0.0168,-0.0146,-0.0194,-0.0192,-0.0191,-0.0103,-0.0085,-0.0077,-0.0005,-0.0039,-0.0035,-0.0032,-0.003,0.0147,0.0149,0,0,0,0,0,0,-0.0282,-0.0263,-0.0243,-0.024,-0.0259,-0.0219,-0.0214,-0.0212,-0.0147,-0.0139,-0.0191,-0.019,-0.0093,-0.0083,-0.0073,-0.0014,-0.0034,-0.0029,-0.0027,0.0145,0.0148,0.015,0,0,0,0,0,0,-0.0283,-0.0281,-0.0246,-0.0253,-0.0247,-0.0219,-0.0217,-0.0211,-0.0184,-0.0146,-0.0136,-0.017,-0.0093,-0.008,-0.0023,-0.001,-0.0027,-0.0023,0.0143,0.0146,0.0149,0.0099,0,0,0,0,0,0,-0.0284,-0.0281,-0.0282,-0.0254,-0.0247,-0.0214,-0.0217,-0.021,-0.0185,-0.0183,-0.0124,-0.0115,-0.0092,-0.0031,-0.0019,-0.0003,-0.0019,0.0141,0.0145,0.0148,0.0098,0.0099,0.0101,0,0,0,0,0,-0.0285,-0.0293,-0.0283,-0.028,-0.0251,-0.0214,-0.0206,-0.0185,-0.0184,-0.0163,-0.0129,-0.0117,-0.0,-0.0026,-0.0012,0.0005,0.0139,0.0144,0.0148,0.0098,0.0099,0.0101,0,0,0,0,0,0,-0.0313,-0.0289,-0.0278,-0.028,-0.0243,-0.021,-0.0195,-0.0178,-0.0135,-0.0128,-0.0097,-0.0084,-0.0025,0.0006,-0.0023,0.0072,0.0074,0.0081,0.0032,0.0034,0.0035,-0.0017,-0.0015,0,0,0,0,0,-0.0318,-0.0312,-0.0278,-0.0278,-0.0258,-0.0221,-0.0204,-0.0181,-0.0144,-0.0125,-0.0082,-0.0035,0.0003,0.0028,0.008,0.0127,0.0112,0.0152,0.0154,0.0154,0.0125,0.0105,0.0099,0.0163,0.0163,0.0163,0,0,-0.0342,-0.0318,-0.0323,-0.0282,-0.0252,-0.0253,-0.021,-0.0173,-0.0178,-0.0118,-0.009,-0.0022,0.0021,0.0072,0.0101,0.0096,0.0136,0.0159,0.0158,0.0129,0.0108,0.0101,0.0095,0.0166,0.0165,0.0165,0,0,-0.0391,-0.0346,-0.0366,-0.0331,-0.028,-0.0253,-0.0243,-0.0183,-0.0153,-0.0106,-0.0071,0.0001,0.007,0.0099,0.0116,0.016,0.0148,0.0193,0.0146,0.0128,0.012,0.0113,0.0101,0.0093,0.0186,0.0186,0.0185,0,-0.0417,-0.044,-0.0363,-0.0365,-0.0359,-0.0264,-0.029,-0.0242,-0.0172,-0.0157,-0.0101,-0.0006,0.0071,0.0073,0.0112,0.0158,0.0139,0.0127,0.0122,0.0115,0.0108,0.0097,0.0089,0.0184,0.0184,0.0184,0.0184,0,-0.0469,-0.0499,-0.0496,-0.0481,-0.0452,-0.044,-0.0375,-0.0324,-0.0262,-0.0225,-0.0161,-0.005,-0.0007,0.0054,0.0103,0.0105,0.0104,0.0124,0.0099,0.0098,0.0088,0.008,0.0181,0.0182,0.0182,0.0183,0,0,-0.0514,-0.054,-0.0537,-0.0567,-0.0509,-0.0486,-0.0476,-0.0446,-0.0434,-0.0331,-0.0331,-0.0205,-0.0125,-0.0097,-0.0012,0.0006,0.0003,0.0051,0.0051,0.0004,-0.0052,-0.0029,-0.0035,0.0003,0.0002,0.0,-0.0039,0,-0.0587,-0.0649,-0.0631,-0.0692,-0.0726,-0.0643,-0.0637,-0.0581,-0.0503,-0.0453,-0.0353,-0.0289,-0.0196,-0.0133,-0.0115,-0.0009,-0.0022,0.0011,-0.0015,-0.0016,-0.0025,-0.0045,-0.0073,-0.0109,-0.0046,-0.0047,-0.0048,0,-0.066,-0.0685,-0.0771,-0.0812,-0.0807,-0.081,-0.0758,-0.0738,-0.0657,-0.0588,-0.0538,-0.0443,-0.0375,-0.0278,-0.0216,-0.0207,-0.0146,-0.0081,-0.0082,-0.0059,-0.0008,-0.0095,-0.0125,-0.0061,-0.006,-0.0059,-0.0058,0,-0.073,-0.0797,-0.0869,-0.0873,-0.0878,-0.0879,-0.0854,-0.0779,-0.0732,-0.0668,-0.0606,-0.0568,-0.0467,-0.0446,-0.0264,-0.0258,-0.0198,-0.0179,-0.0133,-0.0131,-0.0159,-0.0156,-0.0191,-0.0191,-0.0191,-0.0191,-0.0191,0,-0.0826,-0.0884,-0.0899,-0.0924,-0.0946,-0.0929,-0.0915,-0.087,-0.0798,-0.0738,-0.0669,-0.0595,-0.0496,-0.0419,-0.0338,-0.0247,-0.0273,-0.0165,-0.015,-0.017,-0.0167,-0.0126,-0.0118,-0.0193,-0.0192,-0.0192,-0.0192,0,-0.0897,-0.0938,-0.0995,-0.0995,-0.0993,-0.098,-0.0925,-0.0895,-0.083,-0.075,-0.0724,-0.0604,-0.0511,-0.0427,-0.033,-0.0291,-0.0233,-0.02,-0.0218,-0.0205,-0.0151,-0.0145,-0.0213,-0.0213,-0.0213,-0.0213,-0.0213,0,-0.0941,-0.0992,-0.0996,-0.0996,-0.0992,-0.0975,-0.095,-0.0902,-0.0857,-0.0735,-0.0692,-0.0583,-0.0487,-0.0371,-0.0302,-0.0252,-0.0207,-0.0239,-0.0231,-0.0181,-0.0159,-0.0153,-0.0146,-0.0282,-0.0283,-0.0283,-0.0283,0,-0.0979,-0.0973,-0.097,-0.0981,-0.097,-0.096,-0.0925,-0.0896,-0.0819,-0.0747,-0.0634,-0.0563,-0.0444,-0.0379,-0.0302,-0.0267,-0.0262,-0.0245,-0.0211,-0.0258,-0.0246,-0.0223,-0.0216,-0.0287,-0.0286,-0.0286,-0.0286,-0.0286,-0.0946,-0.0925,-0.0926,-0.0928,-0.093,-0.0929,-0.0888,-0.084,-0.077,-0.0598,-0.0585,-0.0437,-0.0426,-0.0293,-0.0252,-0.0222,-0.0265,-0.0263,-0.0263,-0.0262,-0.0249,-0.0236,-0.0273,-0.0272,-0.0272,-0.0272,-0.0271,0,-0.0914,-0.0901,-0.0886,-0.0884,-0.0883,-0.0907,-0.0853,-0.0764,-0.0657,-0.0525,-0.0402,-0.0302,-0.0283,-0.0238,-0.0233,-0.0244,-0.0227,-0.0203,-0.0215,-0.0216,-0.0216,-0.0199,-0.021,-0.0208,-0.0207,-0.0206,0,0,-0.0891,-0.0866,-0.0857,-0.0847,-0.0851,-0.0811,-0.077,-0.0612,-0.0488,-0.029,-0.0189,-0.0144,-0.023,-0.0175,-0.022,-0.0213,-0.0176,-0.0179,-0.0251,-0.0267,-0.0264,-0.0302,-0.0284,0,0,0,0,0]}],[{"header":{"parameterUnit":"m.s-1","parameterCategory":2,"la1":30.2991,"la2":30.254,"lo1":-89.0895,"lo2":-89.0444,"dy":0.0017,"dx":0.0017,"nx":28,"ny":28,"refTime":"2023-08-20T21:00:00:Z","depth":"4","parameterNumber":2,"parameterNumberName":"U-component_of_CURRENTS"},"data":[0,0,0,0,0,0,0,0,0,0,0,0,0,0,0,0,0,0,0,0,0,0,0,0,0,0,0,0,0,0,0,0,0,0,0,0,0,0,0,0,0,0,0,0,0,0,0,0,0,0,0,0,0,0,0,0,0,0,0.0122,0.0121,0,0.0114,0.0114,0.0114,0.0073,0.0072,0.0071,0.007,-0.0071,-0.0074,-0.0076,0,0,0,0,0,0,0,0,0,0,0,0,0,0.018,0.0179,0.0122,0.0121,0.0121,0.0114,0.0114,0.0114,0.0074,0.0072,0.007,0.0069,-0.0071,-0.0074,-0.0077,0,0,0,0,0,0,0,0,0,0,0,0,0,0.0165,0.0179,0.0122,0.0097,0.0095,0.0114,0.0114,0.0114,0.0074,0.0072,0.007,0.0068,-0.007,-0.0073,-0.0077,-0.0062,0,0,-0.0089,-0.009,0,0,0,0,0,0,0,0,0.0166,0.0163,0.0101,0.0099,0.0096,0.009,0.0083,0.0048,0.0074,0.0085,0.0069,0.0067,-0.0031,-0.0038,-0.0028,-0.0069,-0.0075,-0.0089,-0.0091,-0.0093,-0.0094,0,0,0,0,0,0,0,0.0167,0.0164,0.0122,0.0101,0.0098,0.0113,0.0109,0.0077,0.0038,0.0084,0.008,0.0075,-0.0033,-0.0024,-0.0032,-0.0077,-0.0089,-0.0092,-0.0095,-0.0096,-0.0335,-0.0339,0,0,0,0,0,0,0.0158,0.0164,0.0122,0.0122,0.0123,0.0113,0.0108,0.0096,0.0042,0.0031,0.0076,0.0073,-0.0017,-0.0028,-0.0038,-0.0159,-0.0093,-0.0097,-0.0099,-0.0331,-0.0336,-0.034,0,0,0,0,0,0,0.016,0.0155,0.0123,0.014,0.0137,0.0113,0.0101,0.0097,0.0085,0.0036,0.0024,0.0064,-0.0019,-0.0032,-0.0101,-0.016,-0.0098,-0.0102,-0.0326,-0.0332,-0.0338,-0.0315,0,0,0,0,0,0,0.0161,0.0155,0.0146,0.014,0.0135,0.0112,0.0102,0.0098,0.0084,0.0078,0.0022,0.0009,-0.0021,-0.0095,-0.0105,-0.0164,-0.0105,-0.0321,-0.0329,-0.0336,-0.0311,-0.0319,-0.0327,0,0,0,0,0,0.0164,0.0156,0.0145,0.014,0.0122,0.0111,0.011,0.009,0.0085,0.0074,0.0026,0.0009,-0.0153,-0.0099,-0.011,-0.0172,-0.0317,-0.0327,-0.0336,-0.0307,-0.0318,-0.0327,0,0,0,0,0,0,0.0175,0.0151,0.0139,0.0123,0.0107,0.0102,0.0094,0.0087,0.0051,0.0037,-0.0005,-0.0022,-0.0117,-0.0152,-0.0092,-0.0276,-0.0253,-0.0265,-0.0228,-0.0239,-0.0247,-0.0177,-0.0108,0,0,0,0,0,0.0174,0.0159,0.014,0.0125,0.0117,0.0107,0.0101,0.0087,0.0056,0.004,-0.001,-0.0083,-0.0157,-0.0199,-0.0266,-0.0333,-0.0312,-0.04,-0.0408,-0.0414,-0.0374,-0.0403,-0.0407,-0.037,-0.037,-0.037,0,0,0.0141,0.0159,0.0125,0.0126,0.0115,0.0101,0.0098,0.0082,0.0063,0.0028,-0.0032,-0.0102,-0.0183,-0.0276,-0.0325,-0.0312,-0.0418,-0.0426,-0.0429,-0.0385,-0.0413,-0.0415,-0.0417,-0.0376,-0.0375,-0.0374,0,0,0.0132,0.0116,0.0109,0.01,0.01,0.0093,0.0084,0.0058,0.0036,-0.0014,-0.0073,-0.0154,-0.0261,-0.0326,-0.0372,-0.0462,-0.0458,-0.0537,-0.0514,-0.0545,-0.0545,-0.0545,-0.0508,-0.0505,-0.0543,-0.0543,-0.0543,0,0.0084,0.0112,0.0102,0.0118,0.0104,0.0086,0.0073,0.0054,0.0002,-0.0018,-0.0044,-0.02,-0.0272,-0.0367,-0.0421,-0.0471,-0.0471,-0.0455,-0.0545,-0.0545,-0.0545,-0.0508,-0.0504,-0.0543,-0.0543,-0.0543,-0.0543,0,0.0114,0.0098,0.0097,0.0102,0.0086,0.0071,0.0041,0.001,-0.002,-0.0042,-0.0135,-0.0218,-0.0307,-0.0381,-0.0423,-0.0503,-0.0495,-0.054,-0.0491,-0.0545,-0.0505,-0.0502,-0.0543,-0.0543,-0.0543,-0.0543,0,0,0.0096,0.0097,0.0102,0.0093,0.0077,0.0071,0.0029,-0.0001,-0.0018,-0.0086,-0.0111,-0.0253,-0.0288,-0.0343,-0.0428,-0.0463,-0.0477,-0.0507,-0.0509,-0.0417,-0.0501,-0.0397,-0.0383,-0.0547,-0.0547,-0.0547,-0.0463,0,0.0114,0.0128,0.0134,0.0108,0.0093,0.0057,0.0026,-0.0008,-0.0045,-0.0082,-0.015,-0.0225,-0.028,-0.0341,-0.0378,-0.0471,-0.0472,-0.0492,-0.0507,-0.0505,-0.0364,-0.0378,-0.0547,-0.046,-0.0459,-0.0459,-0.0458,0,0.0171,0.0181,0.0156,0.0114,0.0106,0.0089,0.0054,0.002,-0.0033,-0.0064,-0.0118,-0.018,-0.0253,-0.0295,-0.0372,-0.0391,-0.0427,-0.0468,-0.0468,-0.0363,-0.0396,-0.0408,-0.0452,-0.0453,-0.0453,-0.0453,-0.0454,0,0.0213,0.0196,0.0181,0.0165,0.0118,0.0106,0.008,0.0029,0.0003,-0.0054,-0.0076,-0.015,-0.0199,-0.0256,-0.0327,-0.0374,-0.0368,-0.0448,-0.0359,-0.035,-0.0472,-0.0473,-0.0458,-0.0458,-0.0458,-0.0458,-0.0458,0,0.0236,0.0225,0.0203,0.0191,0.0181,0.0142,0.0121,0.0078,0.0039,0.0023,-0.0062,-0.0067,-0.0201,-0.0222,-0.0282,-0.027,-0.0324,-0.0313,-0.0321,-0.0469,-0.0471,-0.0467,-0.047,-0.0455,-0.0456,-0.0456,-0.0457,0,0.0246,0.0227,0.0213,0.0191,0.0187,0.0176,0.0137,0.0119,0.0083,0.0064,0.0042,-0.0016,-0.0032,-0.01,-0.0177,-0.02,-0.0217,-0.0195,-0.0268,-0.0289,-0.0187,-0.019,-0.0098,-0.0093,-0.009,-0.0087,-0.0084,0,0.0238,0.0237,0.0221,0.0212,0.0198,0.0186,0.0168,0.0133,0.0125,0.0118,0.0121,0.0104,0.007,0.0086,0.0003,-0.0031,-0.006,-0.0059,-0.0187,-0.0131,-0.015,-0.0159,-0.0167,-0.0078,-0.0077,-0.0076,-0.0075,0,0.0237,0.0236,0.0224,0.0214,0.0203,0.0195,0.0186,0.0189,0.017,0.0146,0.0192,0.0181,0.0201,0.0155,0.0147,0.0104,-0.0069,-0.0022,-0.0033,-0.0153,-0.0107,-0.0131,-0.0143,-0.0062,-0.0064,-0.0065,-0.0066,0,0.024,0.0235,0.0229,0.0214,0.0214,0.0223,0.0201,0.0221,0.0221,0.0219,0.0262,0.0258,0.0242,0.0236,0.0235,0.0208,0.0156,0.009,0.0072,0.0057,0.006,0.0139,0.0287,0,0,0,0,0,0.0243,0.0241,0.0229,0.0227,0.0232,0.0237,0.023,0.0215,0.0222,0.0257,0.0258,0.0286,0.0293,0.0301,0.0293,0.0279,0.0143,0.0267,0.0054,0.0009,-0.0006,-0.0021,0,0,0,0,0,0,0.0244,0.0241,0.0235,0.0261,0.0268,0.0283,0.0281,0.0268,0.0292,0.0292,0.03,0.0295,0.03,0.0311,0.0304,0.0299,0.0161,0.0267,0.0266,0.0017,0.0004,-0.0008,-0.0029,0,0,0,0,0]},{"header":{"parameterUnit":"m.s-1","parameterCategory":2,"la1":30.2991,"la2":30.254,"lo1":-89.0895,"lo2":-89.0444,"dy":0.0017,"dx":0.0017,"nx":28,"ny":28,"refTime":"2023-08-20T21:00:00:Z","depth":"4","parameterNumber":3,"parameterNumberName":"V-component_of_CURRENTS"},"data":[0,0,0,0,0,0,0,0,0,0,0,0,0,0,0,0,0,0,0,0,0,0,0,0,0,0,0,0,0,0,0,0,0,0,0,0,0,0,0,0,0,0,0,0,0,0,0,0,0,0,0,0,0,0,0,0,0,0,-0.054,-0.054,0,-0.056,-0.056,-0.056,-0.063,-0.0631,-0.0633,-0.0635,-0.08,-0.0803,-0.0806,0,0,0,0,0,0,0,0,0,0,0,0,0,-0.0438,-0.044,-0.054,-0.054,-0.054,-0.056,-0.056,-0.056,-0.063,-0.0632,-0.0634,-0.0635,-0.0799,-0.0803,-0.0806,0,0,0,0,0,0,0,0,0,0,0,0,0,-0.0472,-0.0441,-0.0539,-0.0578,-0.0582,-0.056,-0.056,-0.056,-0.0629,-0.0632,-0.0634,-0.0636,-0.0798,-0.0802,-0.0807,-0.0783,0,0,-0.082,-0.0822,0,0,0,0,0,0,0,0,-0.047,-0.0476,-0.0572,-0.0575,-0.0579,-0.0596,-0.0585,-0.0642,-0.0628,-0.061,-0.0635,-0.0638,-0.0744,-0.0753,-0.0748,-0.0791,-0.0798,-0.082,-0.0823,-0.0825,-0.0826,0,0,0,0,0,0,0,-0.0468,-0.0474,-0.0547,-0.0572,-0.0577,-0.0552,-0.0561,-0.0595,-0.0665,-0.0612,-0.0617,-0.062,-0.0748,-0.0743,-0.0753,-0.08,-0.082,-0.0824,-0.0827,-0.0828,-0.0978,-0.0979,0,0,0,0,0,0,-0.0471,-0.0473,-0.0546,-0.0547,-0.0531,-0.0553,-0.0562,-0.0587,-0.0661,-0.0674,-0.0618,-0.0623,-0.0735,-0.0748,-0.0759,-0.0857,-0.0825,-0.0829,-0.0831,-0.0977,-0.0978,-0.098,0,0,0,0,0,0,-0.047,-0.0479,-0.0545,-0.051,-0.0517,-0.0553,-0.0579,-0.0586,-0.0628,-0.0665,-0.0681,-0.0659,-0.0737,-0.0753,-0.0835,-0.086,-0.0831,-0.0834,-0.0975,-0.0977,-0.0979,-0.0976,0,0,0,0,0,0,-0.0467,-0.0478,-0.0505,-0.0511,-0.0519,-0.0566,-0.0577,-0.0585,-0.0624,-0.0633,-0.0704,-0.0719,-0.074,-0.0828,-0.0839,-0.0865,-0.0838,-0.0973,-0.0976,-0.0978,-0.0974,-0.0977,-0.098,0,0,0,0,0,-0.0463,-0.0479,-0.0506,-0.0515,-0.0553,-0.0567,-0.0569,-0.06,-0.0624,-0.0647,-0.0702,-0.0719,-0.0853,-0.0833,-0.0845,-0.0873,-0.0972,-0.0975,-0.0978,-0.0973,-0.0977,-0.098,0,0,0,0,0,0,-0.0456,-0.0488,-0.0518,-0.0549,-0.0576,-0.058,-0.0598,-0.0619,-0.0673,-0.0695,-0.0737,-0.0755,-0.0839,-0.0857,-0.0833,-0.0926,-0.0915,-0.0921,-0.0907,-0.0911,-0.0914,-0.086,-0.0841,0,0,0,0,0,-0.0464,-0.05,-0.052,-0.0559,-0.0566,-0.0591,-0.0604,-0.0627,-0.0665,-0.0692,-0.0758,-0.0813,-0.0848,-0.0884,-0.0931,-0.0976,-0.0949,-0.1004,-0.1007,-0.1009,-0.0975,-0.0951,-0.0947,-0.099,-0.099,-0.099,0,0,-0.0487,-0.0501,-0.0532,-0.0561,-0.0582,-0.0583,-0.0607,-0.0637,-0.0651,-0.0702,-0.078,-0.0839,-0.0867,-0.0924,-0.0961,-0.095,-0.0991,-0.1013,-0.1015,-0.0979,-0.0953,-0.0948,-0.0944,-0.0992,-0.0992,-0.0992,0,0,-0.0502,-0.055,-0.0564,-0.0574,-0.0599,-0.0609,-0.0628,-0.0669,-0.0703,-0.0765,-0.0806,-0.087,-0.0956,-0.0966,-0.0975,-0.1019,-0.1014,-0.1064,-0.1028,-0.1006,-0.1001,-0.0996,-0.0977,-0.097,-0.1057,-0.1057,-0.1057,0,-0.0526,-0.0534,-0.0573,-0.0563,-0.0566,-0.0623,-0.0616,-0.0645,-0.0723,-0.0743,-0.0802,-0.0899,-0.0952,-0.0953,-0.0984,-0.1021,-0.1013,-0.1009,-0.1005,-0.1,-0.0994,-0.0976,-0.0968,-0.1057,-0.1057,-0.1057,-0.1057,0,-0.0516,-0.0531,-0.0536,-0.0549,-0.0565,-0.0574,-0.0603,-0.0655,-0.0718,-0.0747,-0.0816,-0.0883,-0.0925,-0.0971,-0.0994,-0.0991,-0.1002,-0.1016,-0.0983,-0.0989,-0.0971,-0.0962,-0.1058,-0.1057,-0.1057,-0.1057,0,0,-0.0537,-0.0531,-0.0534,-0.0529,-0.0549,-0.0561,-0.0585,-0.0606,-0.0628,-0.072,-0.0731,-0.0815,-0.0865,-0.0877,-0.0927,-0.0923,-0.0911,-0.0961,-0.096,-0.092,-0.0867,-0.0841,-0.0829,-0.0932,-0.093,-0.0928,-0.0875,0,-0.0515,-0.0482,-0.0489,-0.0487,-0.047,-0.0512,-0.0522,-0.0559,-0.0627,-0.0671,-0.0706,-0.0762,-0.0819,-0.0864,-0.0859,-0.0913,-0.0887,-0.0923,-0.0886,-0.0884,-0.084,-0.0817,-0.0923,-0.0869,-0.0867,-0.0866,-0.0865,0,-0.0469,-0.0457,-0.0428,-0.043,-0.0429,-0.0445,-0.0478,-0.05,-0.0545,-0.06,-0.0638,-0.069,-0.0705,-0.0759,-0.077,-0.0799,-0.0816,-0.0844,-0.0842,-0.0799,-0.084,-0.0861,-0.085,-0.0851,-0.0852,-0.0853,-0.0854,0,-0.0419,-0.0408,-0.0384,-0.0382,-0.0395,-0.0406,-0.0433,-0.0484,-0.0515,-0.0564,-0.0607,-0.0616,-0.0659,-0.0655,-0.0723,-0.0752,-0.0724,-0.0764,-0.0732,-0.0732,-0.0772,-0.0778,-0.0718,-0.0718,-0.0718,-0.0719,-0.0719,0,-0.0351,-0.034,-0.0365,-0.0353,-0.0357,-0.0375,-0.0406,-0.0445,-0.0488,-0.0512,-0.0572,-0.058,-0.0643,-0.0648,-0.0674,-0.0673,-0.0672,-0.0696,-0.0702,-0.078,-0.0787,-0.0767,-0.0774,-0.0717,-0.0717,-0.0717,-0.0718,0,-0.0287,-0.0291,-0.0283,-0.0312,-0.0329,-0.0342,-0.041,-0.0435,-0.0484,-0.0514,-0.0526,-0.0566,-0.0567,-0.0603,-0.0614,-0.0631,-0.062,-0.0611,-0.0677,-0.0694,-0.0654,-0.0661,-0.0559,-0.0558,-0.0556,-0.0555,-0.0554,0,-0.0241,-0.0225,-0.0273,-0.0299,-0.0322,-0.0356,-0.0383,-0.0435,-0.0458,-0.0488,-0.0478,-0.0497,-0.0517,-0.0485,-0.053,-0.0533,-0.0547,-0.0551,-0.0604,-0.0613,-0.063,-0.064,-0.065,-0.0552,-0.0551,-0.0551,-0.0551,0,-0.0184,-0.0213,-0.0231,-0.0278,-0.0322,-0.035,-0.0387,-0.039,-0.0422,-0.0472,-0.0426,-0.043,-0.0423,-0.043,-0.0449,-0.0451,-0.0557,-0.0536,-0.054,-0.059,-0.0603,-0.0624,-0.0635,-0.0546,-0.0546,-0.0547,-0.0547,0,-0.0177,-0.019,-0.023,-0.0275,-0.0313,-0.0318,-0.0348,-0.0348,-0.0358,-0.038,-0.0344,-0.0354,-0.0376,-0.0383,-0.0377,-0.04,-0.0418,-0.0449,-0.0458,-0.0465,-0.0468,-0.0474,-0.035,0,0,0,0,0,-0.0165,-0.0187,-0.0228,-0.0265,-0.0293,-0.0307,-0.0331,-0.035,-0.0362,-0.0321,-0.0334,-0.0309,-0.0318,-0.0312,-0.0321,-0.0366,-0.0435,-0.0381,-0.0479,-0.0518,-0.0524,-0.0543,0,0,0,0,0,0,-0.0166,-0.0195,-0.0219,-0.0236,-0.025,-0.0267,-0.0274,-0.0291,-0.0256,-0.0273,-0.0258,-0.0307,-0.0297,-0.0296,-0.0311,-0.0323,-0.0388,-0.0399,-0.0399,-0.0514,-0.052,-0.0524,-0.0546,0,0,0,0,0]}]]